Kezdőlap
METAR-TAF:

METAR-TAF

Repülőterek :

Faribault Municipal Airport

Faribault, Minnesota, Amerikai Egyesült Államok

földrajzi szélesség: 44-20N, földrajzi hosszúság: 093-19W, magasság: 322 m

Jelenlegi meteorológiai megfigyelések

A jelentés 39 perccel ezelõtt készült, 14:35 UTC
Nyugat-délnyugati szél 3 kt
Hőmérséklet 19°C
Páratartalom 83%
Légköri nyomás 1013 hPa
Látótávolság: 16.1 km
Borult 2600 lábon

METAR: KFBL 231435Z AUTO 24003KT 10SM OVC026 19/16 A2991 RMK AO2

Idő: 10:14 (15:14 UTC)


TAF: hiányzik

Meteorológiai megfigyelések és előrejelzések több, mint 4000 repülőtéren (METAR és TAF jelentéseket).

A térképen piros és sárga pontok jelzik az elérhető meteorológiai állomásokat.

Mozgassa az egeret a pont fölött, hogy megjelenjen az állomás neve.

Azután kattintson az időjárási megfigyelések és előrejelzések megtekintéséhez.

A térkép megváltoztatása: kattintson a fekete keresztel jelölt zöld gombra ráközelítéshez, a vonallal jelölt zöld gombra távolításhoz, vagy a zöld nyilakra a szomszédos térképek eléréséhez.


METAR-TAF: